Location: Caltech
(34.1382°N, 118.1253°W)
Time: 18:01:12
(UTC-07:00)

BREEZE M DEB (TANK) - Visible Passes

Search period start: 23 July 2016 00:00
Search period end: 02 August 2016 00:00
Orbit: 335 x 13711 km, 49.6° (Epoch: 22 July)

Date Brightness Start Highest point End Pass type
(mag) Time Alt. Az. Time Alt. Az. Time Alt. Az.
23 Jul 5.5 02:30:27 10° NW 02:47:05 42° W 02:47:05 42° W visible
23 Jul 6.3 23:14:01 10° WNW 00:06:40 62° NNE 00:13:29 25° E visible
24 Jul 7.6 19:11:19 10° WSW 21:12:30 61° NNW 21:34:40 10° ENE visible
25 Jul 5.1 01:32:45 10° NW 01:57:11 67° WSW 01:57:11 67° WSW visible
25 Jul 6.8 22:00:09 10° WNW 23:13:06 58° N 23:23:37 15° E visible
26 Jul 6.8 03:37:38 10° WNW 03:40:53 12° W 03:40:53 12° W visible
26 Jul 7.8 18:07:37 10° SW 20:14:10 66° NNW 20:42:53 10° ENE visible
27 Jul 5.1 00:32:54 10° NW 01:06:08 90° NE 01:07:20 74° SE visible
27 Jul 7.1 20:42:09 10° W 22:18:32 57° N 22:33:02 10° E visible
28 Jul 6.4 02:39:37 10° NW 02:51:04 24° W 02:51:04 24° W visible
28 Jul 5.6 23:29:23 10° WNW 00:14:03 74° NNE 00:17:32 50° E visible
29 Jul 7.3 19:27:41 10° WSW 21:22:40 59° N 21:41:27 10° ENE visible
30 Jul 5.9 01:42:06 10° NW 02:01:18 42° W 02:01:18 42° W visible
30 Jul 6.2 22:20:18 10° WNW 23:21:08 65° NNE 23:27:46 32° E visible
31 Jul 7.6 18:19:58 10° WSW 20:25:08 62° NNW 20:49:41 10° ENE visible
01 Aug 5.4 00:43:18 10° NW 01:11:33 65° WSW 01:11:33 65° WSW visible
01 Aug 6.7 21:04:49 10° WNW 22:27:17 61° NNE 22:38:03 19° E visible
